Regional Weather Roundup
Issued by NWS Cleveland, OH

Home | Current Version | Previous Version | Graphics & Text | Print | Product List | Glossary On
Versions: 1 2 3 4 5 6 7 8 9 10 11 12 13 14 15 16 17 18 19 20 21 22 23 24 25 26 27 28 29 30 31 32 33 34 35 36 37 38 39 40 41 42 43 44 45 46 47 48 49 50
000
ASUS41 KCLE 220800
RWRCLE
OHIO REGIONAL WEATHER ROUNDUP
NATIONAL WEATHER SERVICE WILMINGTON, OH
400 AM EDT SUN OCT 22 2017

NOTE: "FAIR" INDICATES FEW OR NO CLOUDS BELOW 12,000 FEET WITH NO
SIGNIFICANT WEATHER AND/OR OBSTRUCTIONS TO VISIBILITY.

OHZ001>008-015>018-024>027-034-035-043-044-220900-
   NORTHWEST OHIO

CITY           SKY/WX    TMP DP  RH WIND       PRES   REMARKS
DEFIANCE       FAIR      57  46  66 SE3       30.15F
FINDLAY        FAIR      53  46  77 SE6       30.17S
TOLEDO EXPRESS FAIR      52  49  89 CALM      30.16S
TOLEDO EXEC    FAIR      54  47  77 SE6       30.18S
LIMA           FAIR      53  47  79 S7        30.17F
$$

OHZ009>014-019>023-028>033-038-089-220900-
   NORTHEAST OHIO

CITY           SKY/WX    TMP DP  RH WIND       PRES   REMARKS
CLE-HOPKINS    FAIR      54  49  83 SE3       30.24R
CLE-LAKEFRONT  FAIR      59  50  72 SE10      30.21S
CUY CO. ARPT   NOT AVBL
LORAIN-ELYRIA  FAIR      53  46  77 S5        30.22R
ASHTABULA      FAIR      51  49  92 S6        30.26S
AKRON-CANTON   NOT AVBL
WOOSTER        NOT AVBL
MANSFIELD      FAIR      56  49  77 S9        30.22S
YOUNGSTOWN     FAIR      53  49  86 SE6       30.26R
$$

OHZ042-051>053-060>062-070>072-077>081-220900-
  SOUTHWEST OHIO

CITY           SKY/WX    TMP DP  RH WIND       PRES   REMARKS
CINC-COVINGTON FAIR      58  48  69 S6        30.18F
CINC-LUNKEN    FAIR      48  48 100 CALM      30.21S FOG
HAMILTON       FAIR      47  45  93 E3        30.19F
DAYTON         NOT AVBL
WRIGHT-PAT AFB FAIR      53  51  92 CALM      30.18F
DAYTON GENERAL FAIR      57  48  72 S7        30.18F
WILMINGTON     FAIR      55  50  83 SE3       30.20F
$$

OHZ036-037-039>041-045>050-054>059-063>069-073>076-082>088-220900-
  CENTRAL AND SOUTHEAST OHIO

CITY           SKY/WX    TMP DP  RH WIND       PRES   REMARKS
COLUMBUS       MOCLDY    56  51  84 CALM      30.21S
OSU AIRPORT    FAIR      49  49 100 CALM      30.21F
BOLTON FIELD   FAIR      49  48  95 CALM      30.21F
RICKENBACK AFB NOT AVBL
NEWARK         FAIR      50  47  89 CALM      30.22S
MARION         FAIR      53  47  79 S9        30.21S
LANCASTER      FAIR      50  49  96 CALM      30.22S
ZANESVILLE     FAIR      51  49  92 CALM      30.23S
NEW PHILLY     FAIR      51  50  96 CALM      30.25S
$$




USA.gov is the U.S. government's official web portal to all federal, state and local government web resources and services.